Location: Newark
(25.4800°N, 85.7200°E)
Time: 00:02:06
(UTC+00:00)

Explorer 11/Cluster Stage 4 - Pass Details

Date: 23 August 2019
Orbit: 467 x 1260 km, 28.8° (Epoch: 21 September)

Event Time Altitude Azimuth Distance (km) Brightness Sun altitude
Rises 00:51:33 0° 190° (S) 3,671 9.8 12.0°
Reaches altitude 10° 00:56:53 10° 155° (SSE) 2,936 9.8 13.2°
Maximum altitude 00:58:33 11° 142° (SE) 2,930 10.0 13.6°
Drops below altitude 10° 01:00:16 10° 129° (SE) 3,046 10.4 14.0°
Sets 01:06:14 0° 96° (E) 4,146 12.0 15.3°
